NKS3220 KFLL-KMCO

Flight info

Callsign NKS3220
Flight time 0h 36m
Altitude 20000
Route FRSBE2 WAPOM MUNGI1
Aircraft A320/M-SDE3FGHIRWY/LB1

Departure

Time 2026-05-03 22:49
Airport Fort Lauderdale Hollywood International Airport (KFLL)

Arrival

Time 2026-05-03 23:26
Airport Orlando International Airport (KMCO)
Time Latitude Longitude Altitude Speed Heading
2026-05-03 20:15 26.07388 -80.13799 37 ft 0 kts 257°
2026-05-03 21:53 26.07388 -80.13797 19 ft 3 kts 257°
2026-05-03 21:54 26.07395 -80.13768 18 ft 4 kts 255°
2026-05-03 21:54 26.07399 -80.13741 19 ft 4 kts 295°
2026-05-03 21:54 26.07396 -80.13735 19 ft 1 kts
2026-05-03 21:54 26.07392 -80.13735 19 ft 0 kts
2026-05-03 21:58 26.07395 -80.13735 19 ft 2 kts 360°
2026-05-03 21:58 26.07436 -80.13739 18 ft 9 kts 342°
2026-05-03 21:58 26.07468 -80.13808 17 ft 12 kts 277°
2026-05-03 21:59 26.07481 -80.13907 19 ft 14 kts 282°
2026-05-03 21:59 26.07486 -80.14014 22 ft 14 kts 268°
2026-05-03 21:59 26.07485 -80.14132 24 ft 16 kts 271°
2026-05-03 21:59 26.07487 -80.14269 24 ft 20 kts 271°
2026-05-03 22:00 26.07486 -80.14438 24 ft 22 kts 268°
2026-05-03 22:00 26.07486 -80.14614 26 ft 24 kts 270°
2026-05-03 22:00 26.07491 -80.14804 22 ft 24 kts 271°
2026-05-03 22:00 26.07491 -80.14978 20 ft 22 kts 272°
2026-05-03 22:01 26.07500 -80.15060 23 ft 8 kts 294°
2026-05-03 22:01 26.07506 -80.15075 16 ft 1 kts 280°
2026-05-03 22:01 26.07507 -80.15103 21 ft 5 kts 283°
2026-05-03 22:01 26.07509 -80.15107 21 ft 0 kts 288°
2026-05-03 22:02 26.07509 -80.15112 20 ft 3 kts 278°
2026-05-03 22:02 26.07499 -80.15170 18 ft 12 kts 258°
2026-05-03 22:02 26.07489 -80.15291 16 ft 19 kts 268°
2026-05-03 22:03 26.07492 -80.15446 17 ft 21 kts 272°
2026-05-03 22:03 26.07492 -80.15609 19 ft 22 kts 268°
2026-05-03 22:03 26.07489 -80.15779 20 ft 21 kts 272°
2026-05-03 22:03 26.07494 -80.15938 23 ft 18 kts 268°
2026-05-03 22:04 26.07495 -80.16029 25 ft 7 kts 272°
2026-05-03 22:04 26.07496 -80.16051 25 ft 0 kts 272°
2026-05-03 22:09 26.07496 -80.16061 25 ft 5 kts 268°
2026-05-03 22:09 26.07495 -80.16087 25 ft 2 kts 269°
2026-05-03 22:09 26.07495 -80.16089 25 ft 0 kts 269°
2026-05-03 22:10 26.07495 -80.16090 26 ft 0 kts 269°
2026-05-03 22:10 26.07495 -80.16091 26 ft 0 kts 269°
2026-05-03 22:10 26.07495 -80.16094 26 ft 2 kts 269°
2026-05-03 22:11 26.07495 -80.16108 26 ft 2 kts 270°
2026-05-03 22:11 26.07495 -80.16120 26 ft 3 kts 270°
2026-05-03 22:11 26.07495 -80.16168 25 ft 6 kts 270°
2026-05-03 22:11 26.07495 -80.16183 25 ft 1 kts 270°
2026-05-03 22:12 26.07495 -80.16185 25 ft 0 kts 270°
2026-05-03 22:19 26.07495 -80.16189 25 ft 1 kts 270°
2026-05-03 22:19 26.07495 -80.16206 27 ft 3 kts 270°
2026-05-03 22:20 26.07496 -80.16233 25 ft 4 kts 271°
2026-05-03 22:20 26.07497 -80.16267 24 ft 5 kts 271°
2026-05-03 22:20 26.07497 -80.16309 24 ft 5 kts 267°
2026-05-03 22:20 26.07497 -80.16313 24 ft 0 kts 267°
2026-05-03 22:23 26.07497 -80.16315 24 ft 1 kts 267°
2026-05-03 22:24 26.07496 -80.16354 24 ft 5 kts 269°
2026-05-03 22:24 26.07496 -80.16362 24 ft 0 kts 270°
2026-05-03 22:25 26.07496 -80.16369 24 ft 2 kts 270°
2026-05-03 22:25 26.07496 -80.16389 24 ft 3 kts 271°
2026-05-03 22:25 26.07497 -80.16416 24 ft 3 kts 272°
2026-05-03 22:26 26.07497 -80.16417 24 ft 0 kts 272°
2026-05-03 22:31 26.07497 -80.16431 24 ft 7 kts 271°
2026-05-03 22:31 26.07497 -80.16446 24 ft 0 kts 271°
2026-05-03 22:33 26.07497 -80.16453 24 ft 5 kts 271°
2026-05-03 22:33 26.07498 -80.16471 24 ft 0 kts 271°
2026-05-03 22:33 26.07498 -80.16474 24 ft 0 kts 271°
2026-05-03 22:33 26.07498 -80.16477 24 ft 0 kts 271°
2026-05-03 22:34 26.07498 -80.16480 25 ft 0 kts 271°
2026-05-03 22:37 26.07498 -80.16489 25 ft 2 kts 270°
2026-05-03 22:37 26.07498 -80.16512 25 ft 2 kts 270°
2026-05-03 22:38 26.07498 -80.16537 25 ft 0 kts 271°
2026-05-03 22:38 26.07498 -80.16539 25 ft 2 kts 271°
2026-05-03 22:38 26.07498 -80.16544 25 ft 0 kts 272°
2026-05-03 22:38 26.07498 -80.16548 24 ft 3 kts 272°
2026-05-03 22:39 26.07498 -80.16578 24 ft 3 kts 266°
2026-05-03 22:39 26.07497 -80.16598 24 ft 3 kts 270°
2026-05-03 22:39 26.07501 -80.16618 24 ft 4 kts 289°
2026-05-03 22:39 26.07519 -80.16636 24 ft 2 kts 330°
2026-05-03 22:40 26.07524 -80.16639 23 ft 0 kts 337°
2026-05-03 22:43 26.07525 -80.16639 23 ft 0 kts 337°
2026-05-03 22:43 26.07530 -80.16641 23 ft 0 kts 343°
2026-05-03 22:44 26.07531 -80.16641 23 ft 1 kts 343°
2026-05-03 22:45 26.07545 -80.16646 23 ft 2 kts 343°
2026-05-03 22:45 26.07567 -80.16652 24 ft 5 kts 352°
2026-05-03 22:45 26.07578 -80.16650 22 ft 0 kts
2026-05-03 22:46 26.07581 -80.16650 22 ft 3 kts
2026-05-03 22:47 26.07636 -80.16645 22 ft 12 kts
2026-05-03 22:47 26.07693 -80.16585 23 ft 11 kts 81°
2026-05-03 22:47 26.07695 -80.16567 22 ft 0 kts 86°
2026-05-03 22:48 26.07695 -80.16542 23 ft 14 kts 89°
2026-05-03 22:49 26.07694 -80.16151 25 ft 88 kts 90°
2026-05-03 22:49 26.07690 -80.15243 18 ft 144 kts 91°
2026-05-03 22:49 26.07675 -80.13997 286 ft 169 kts 92°
2026-05-03 22:49 26.07550 -80.12666 882 ft 179 kts 97°
2026-05-03 22:50 26.07447 -80.11235 1483 ft 192 kts 93°
2026-05-03 22:50 26.07388 -80.09742 2082 ft 198 kts 90°
2026-05-03 22:50 26.07375 -80.08130 2307 ft 216 kts 89°
2026-05-03 22:50 26.07372 -80.06383 2513 ft 239 kts 89°
2026-05-03 22:51 26.07373 -80.04437 2926 ft 263 kts 89°
2026-05-03 22:51 26.07401 -80.02354 3622 ft 275 kts 86°
2026-05-03 22:51 26.07891 -80.00285 4427 ft 282 kts 62°
2026-05-03 22:51 26.09116 -79.98582 5192 ft 286 kts 36°
2026-05-03 22:52 26.10884 -79.97596 6004 ft 286 kts 10°
2026-05-03 22:52 26.12846 -79.97529 6815 ft 282 kts 344°
2026-05-03 22:52 26.14595 -79.98419 7620 ft 276 kts 316°
2026-05-03 22:52 26.15724 -80.00096 8452 ft 271 kts 289°
2026-05-03 22:53 26.16001 -80.02147 9258 ft 271 kts 262°
2026-05-03 22:53 26.15544 -80.04188 10058 ft 273 kts 255°
2026-05-03 22:53 26.15455 -80.06330 10371 ft 297 kts 281°
2026-05-03 22:53 26.16466 -80.08410 10723 ft 320 kts 311°
2026-05-03 22:54 26.18398 -80.09727 11342 ft 337 kts 338°
2026-05-03 22:54 26.20680 -80.10428 12021 ft 341 kts 339°
2026-05-03 22:54 26.22868 -80.11429 12720 ft 339 kts 324°
2026-05-03 22:54 26.24594 -80.13150 13412 ft 333 kts 304°
2026-05-03 22:55 26.25803 -80.15336 14064 ft 331 kts 294°
2026-05-03 22:55 26.26851 -80.17630 14712 ft 332 kts 293°
2026-05-03 22:55 26.27930 -80.19914 15453 ft 334 kts 294°
2026-05-03 22:55 26.29069 -80.22177 16096 ft 336 kts 296°
2026-05-03 22:56 26.30270 -80.24427 16706 ft 339 kts 297°
2026-05-03 22:56 26.31522 -80.26674 17337 ft 342 kts 297°
2026-05-03 22:56 26.32804 -80.28922 17940 ft 345 kts 297°
2026-05-03 22:56 26.34104 -80.31183 18511 ft 348 kts 297°
2026-05-03 22:57 26.35412 -80.33458 19033 ft 350 kts 297°
2026-05-03 22:57 26.36726 -80.35755 19550 ft 352 kts 297°
2026-05-03 22:57 26.38044 -80.38068 19927 ft 354 kts 297°
2026-05-03 22:57 26.39362 -80.40387 20019 ft 350 kts 297°
2026-05-03 22:58 26.40650 -80.42652 20038 ft 343 kts 296°
2026-05-03 22:58 26.41921 -80.44899 20044 ft 342 kts 296°
2026-05-03 22:58 26.43184 -80.47137 20048 ft 341 kts 296°
2026-05-03 22:58 26.44445 -80.49376 20048 ft 340 kts 296°
2026-05-03 22:59 26.45703 -80.51611 20048 ft 341 kts 296°
2026-05-03 22:59 26.47001 -80.53822 20048 ft 344 kts 302°
2026-05-03 22:59 26.48074 -80.55140 20051 ft 350 kts 310°
2026-05-03 22:59 26.50081 -80.56745 20049 ft 361 kts 324°
2026-05-03 23:00 26.52465 -80.57760 20046 ft 372 kts 336°
2026-05-03 23:00 26.54958 -80.58548 20045 ft 372 kts 336°
2026-05-03 23:00 26.57455 -80.59335 20075 ft 374 kts 336°
2026-05-03 23:00 26.59961 -80.60128 20072 ft 374 kts 336°
2026-05-03 23:01 26.62458 -80.60919 20071 ft 373 kts 336°
2026-05-03 23:01 26.64956 -80.61711 20071 ft 373 kts 336°
2026-05-03 23:01 26.67456 -80.62504 20074 ft 373 kts 336°
2026-05-03 23:01 26.69954 -80.63298 20072 ft 373 kts 336°
2026-05-03 23:02 26.72453 -80.64093 20073 ft 373 kts 336°
2026-05-03 23:02 26.74946 -80.64887 20073 ft 373 kts 336°
2026-05-03 23:02 26.77415 -80.65673 20078 ft 374 kts 336°
2026-05-03 23:02 26.79955 -80.66482 20078 ft 375 kts 336°
2026-05-03 23:03 26.82460 -80.67278 20077 ft 374 kts 336°
2026-05-03 23:03 26.84932 -80.68053 20074 ft 374 kts 337°
2026-05-03 23:03 26.87436 -80.68824 20098 ft 373 kts 336°
2026-05-03 23:03 26.89927 -80.69634 20095 ft 372 kts 335°
2026-05-03 23:04 26.92399 -80.70497 20091 ft 371 kts 334°
2026-05-03 23:04 26.94851 -80.71401 20089 ft 369 kts 333°
2026-05-03 23:04 26.97240 -80.72300 20031 ft 356 kts 333°
2026-05-03 23:04 26.99545 -80.73175 19877 ft 345 kts 333°
2026-05-03 23:05 27.01800 -80.74035 19585 ft 339 kts 332°
2026-05-03 23:05 27.04025 -80.74887 19254 ft 337 kts 333°
2026-05-03 23:05 27.06229 -80.75732 19057 ft 335 kts 333°
2026-05-03 23:05 27.08436 -80.76577 19050 ft 335 kts 333°
2026-05-03 23:06 27.10644 -80.77420 19057 ft 336 kts 333°
2026-05-03 23:06 27.12858 -80.78264 19003 ft 334 kts 333°
2026-05-03 23:06 27.15056 -80.79100 18655 ft 332 kts 333°
2026-05-03 23:06 27.17238 -80.79929 18329 ft 331 kts 333°
2026-05-03 23:07 27.19410 -80.80750 17950 ft 329 kts 333°
2026-05-03 23:07 27.21571 -80.81566 17575 ft 327 kts 333°
2026-05-03 23:07 27.23737 -80.82338 17199 ft 328 kts 337°
2026-05-03 23:07 27.25950 -80.82955 16834 ft 327 kts 339°
2026-05-03 23:08 27.28159 -80.83552 16472 ft 325 kts 339°
2026-05-03 23:08 27.30353 -80.84150 16124 ft 324 kts 339°
2026-05-03 23:08 27.32532 -80.84749 15780 ft 322 kts 339°
2026-05-03 23:08 27.34704 -80.85353 15440 ft 320 kts 339°
2026-05-03 23:09 27.36860 -80.85960 15112 ft 319 kts 339°
2026-05-03 23:09 27.39003 -80.86571 14784 ft 317 kts 339°
2026-05-03 23:09 27.41133 -80.87185 14469 ft 315 kts 339°
2026-05-03 23:09 27.43249 -80.87802 14170 ft 314 kts 339°
2026-05-03 23:10 27.45329 -80.88416 13847 ft 312 kts 339°
2026-05-03 23:10 27.47448 -80.89048 13501 ft 311 kts 339°
2026-05-03 23:10 27.49530 -80.89671 13164 ft 309 kts 339°
2026-05-03 23:10 27.51599 -80.90296 12826 ft 307 kts 339°
2026-05-03 23:11 27.53625 -80.90909 12508 ft 305 kts 339°
2026-05-03 23:11 27.55670 -80.91537 12150 ft 304 kts 339°
2026-05-03 23:11 27.57729 -80.92174 11834 ft 302 kts 339°
2026-05-03 23:11 27.59748 -80.92800 11525 ft 300 kts 339°
2026-05-03 23:12 27.61756 -80.93423 11211 ft 299 kts 339°
2026-05-03 23:12 27.63752 -80.94043 10910 ft 297 kts 339°
2026-05-03 23:12 27.65711 -80.94650 10605 ft 295 kts 339°
2026-05-03 23:12 27.67681 -80.95263 10300 ft 293 kts 339°
2026-05-03 23:13 27.69633 -80.95874 9987 ft 291 kts 339°
2026-05-03 23:13 27.71580 -80.96485 9655 ft 290 kts 339°
2026-05-03 23:13 27.73515 -80.97101 9322 ft 288 kts 339°
2026-05-03 23:13 27.75435 -80.97726 8981 ft 286 kts 339°
2026-05-03 23:14 27.77341 -80.98361 8660 ft 285 kts 339°
2026-05-03 23:14 27.79237 -80.99005 8348 ft 284 kts 339°
2026-05-03 23:14 27.81125 -80.99659 8038 ft 283 kts 339°
2026-05-03 23:14 27.83000 -81.00323 7733 ft 283 kts 339°
2026-05-03 23:15 27.84872 -81.00997 7441 ft 281 kts 339°
2026-05-03 23:15 27.86728 -81.01678 7143 ft 280 kts 339°
2026-05-03 23:15 27.88578 -81.02385 6842 ft 280 kts 338°
2026-05-03 23:15 27.90419 -81.03091 6551 ft 279 kts 339°
2026-05-03 23:16 27.92241 -81.03788 6383 ft 273 kts 338°
2026-05-03 23:16 27.94012 -81.04463 6255 ft 265 kts 339°
2026-05-03 23:16 27.95733 -81.05115 6130 ft 257 kts 339°
2026-05-03 23:16 27.97395 -81.05760 6015 ft 248 kts 339°
2026-05-03 23:17 27.98985 -81.06386 5985 ft 236 kts 338°
2026-05-03 23:17 28.00530 -81.06987 5988 ft 234 kts 339°
2026-05-03 23:17 28.02054 -81.07618 5998 ft 233 kts 335°
2026-05-03 23:17 28.03512 -81.08405 5998 ft 232 kts 332°
2026-05-03 23:18 28.04996 -81.09259 6003 ft 257 kts 330°
2026-05-03 23:18 28.06630 -81.10246 5999 ft 272 kts 329°
2026-05-03 23:18 28.08284 -81.11320 6000 ft 274 kts 325°
2026-05-03 23:18 28.09768 -81.12658 5998 ft 273 kts 318°
2026-05-03 23:19 28.11165 -81.14050 5995 ft 260 kts 317°
2026-05-03 23:19 28.12487 -81.15372 5996 ft 246 kts 317°
2026-05-03 23:19 28.13733 -81.16618 5999 ft 233 kts 317°
2026-05-03 23:19 28.14935 -81.17820 6007 ft 229 kts 317°
2026-05-03 23:20 28.16126 -81.19022 6004 ft 229 kts 317°
2026-05-03 23:20 28.17321 -81.20219 6006 ft 229 kts 317°
2026-05-03 23:20 28.18517 -81.21412 6007 ft 228 kts 316°
2026-05-03 23:20 28.19717 -81.22600 6011 ft 230 kts 316°
2026-05-03 23:21 28.20910 -81.23791 6014 ft 226 kts 317°
2026-05-03 23:21 28.22051 -81.24940 6023 ft 220 kts 316°
2026-05-03 23:21 28.23195 -81.26091 5792 ft 213 kts 318°
2026-05-03 23:21 28.24282 -81.27201 5174 ft 215 kts 317°
2026-05-03 23:22 28.26405 -81.29508 4562 ft 199 kts 317°
2026-05-03 23:22 28.27478 -81.30364 4223 ft 183 kts 342°
2026-05-03 23:22 28.28709 -81.30357 3568 ft 175 kts 24°
2026-05-03 23:23 28.29654 -81.29581 3054 ft 159 kts 41°
2026-05-03 23:23 28.30573 -81.29029 2714 ft 146 kts 19°
2026-05-03 23:23 28.31556 -81.28765 2300 ft 149 kts 17°
2026-05-03 23:23 28.32614 -81.28428 1974 ft 154 kts 20°
2026-05-03 23:24 28.33600 -81.28148 1639 ft 140 kts 12°
2026-05-03 23:24 28.34542 -81.28192 1373 ft 132 kts 359°
2026-05-03 23:24 28.35465 -81.28351 1110 ft 136 kts 357°
2026-05-03 23:24 28.36442 -81.28339 1032 ft 147 kts
2026-05-03 23:25 28.37511 -81.28250 908 ft 163 kts
2026-05-03 23:25 28.38668 -81.28190 768 ft 167 kts
2026-05-03 23:25 28.39828 -81.28216 464 ft 168 kts 360°
2026-05-03 23:25 28.40980 -81.28243 288 ft 162 kts
2026-05-03 23:26 28.42069 -81.28241 141 ft 144 kts
2026-05-03 23:26 28.42946 -81.28223 103 ft 95 kts
2026-05-03 23:26 28.43285 -81.28113 102 ft 5 kts 13°
2026-05-03 23:26 28.43287 -81.28109 102 ft 2 kts 47°